Location: Carbonear
(47.7333°N, 53.2500°W)
Time: 22:13:41
(UTC+00:00)

STRAND 1 - Pass Details

Date: 09 December 2022
Orbit: 768 x 779 km, 98.4° (Epoch: 01 February)

Event Time Altitude Azimuth Distance (km) Brightness Sun altitude
Exits shadow 22:16:09 25° 161° (SSE) 1,502 ? -25.1°
Drops below altitude 10° 22:18:24 10° 174° (S) 2,304 ? -25.4°
Sets 22:20:47 0° 180° (S) 3,228 ? -25.8°
